Wind_Speed
36 36 36 36 35 35 34 34 34 34 34 33 34 34 33 34 35 34 34 34 34 34 34 34 34 34 34 34 34 34 34 35 36 36 36 36 36 37 37 38 38 38 38
37 37 37 37 36 36 36 36 36 36 36 35 35 35 35 35 36 36 36 36 36 36 36 36 36 36 36 36 36 36 37 38 38 38 38 38 39 39 40 40 40 40 40
38 39 39 39 39 38 38 38 38 38 38 37 37 37 37 37 37 38 38 38 38 38 38 39 39 38 39 39 39 39 39 39 39 40 40 41 41 41 42 42 42 42 42
39 40 41 41 41 41 40 40 40 39 39 39 39 39 39 39 39 38 39 39 40 40 40 40 40 41 41 41 41 42 41 41 41 41 42 42 43 43 43 43 44 44 44
40 41 41 42 43 42 42 41 41 41 41 40 41 41 41 41 41 40 40 41 41 41 42 42 43 42 43 43 44 44 44 44 43 43 44 44 45 45 45 45 45 45 45
41 42 42 42 43 43 43 42 42 42 42 42 42 43 43 43 43 43 43 43 44 44 45 45 45 45 45 46 46 46 46 46 46 46 46 46 46 47 46 46 47 47 47
42 42 43 43 42 43 43 44 44 44 43 43 43 44 44 44 44 44 45 45 44 45 46 46 47 47 47 48 48 48 48 48 48 49 49 47 47 48 47 47 48 48 49
42 42 43 43 43 43 43 44 45 45 46 45 45 45 45 45 46 46 46 46 46 46 46 47 47 48 48 49 49 48 49 49 49 49 49 49 49 49 49 49 49 50 50
43 43 43 44 45 45 44 44 44 45 46 47 47 47 47 47 46 47 48 48 49 49 49 49 49 48 49 49 49 49 50 50 50 50 50 50 50 50 50 50 50 51 52
43 43 44 45 46 46 45 45 45 45 46 47 48 48 48 48 48 48 48 49 49 50 50 50 50 50 50 50 50 50 50 51 50 50 50 51 51 51 51 52 52 52 52
43 44 45 46 45 46 46 46 46 47 48 48 49 49 50 50 49 49 49 49 49 50 50 51 52 52 52 52 52 52 52 52 51 51 51 52 52 52 53 53 53 53 53
44 45 45 45 45 45 46 47 48 48 49 49 49 50 50 50 50 49 49 49 49 50 51 51 51 52 52 52 53 53 54 54 53 53 53 52 53 54 53 53 52 53 53
45 45 45 45 46 46 47 47 48 49 48 48 48 48 48 49 50 50 49 49 49 49 49 50 50 51 52 52 53 53 53 53 53 53 53 53 53 53 52 52 52 53 52
45 45 45 46 47 47 48 47 47 47 47 47 47 47 48 49 49 49 49 49 48 48 48 48 49 49 50 51 51 51 51 51 51 51 52 52 52 52 52 52 52 52 51
45 46 47 46 47 47 47 47 46 46 47 47 47 47 47 48 48 49 49 49 49 49 48 48 49 48 49 49 49 49 50 49 50 50 50 50 51 51 52 52 52 51 51
43 44 45 46 46 46 47 47 47 47 47 47 48 47 47 48 48 49 49 50 50 50 49 48 48 48 48 47 47 48 49 49 49 49 49 50 50 50 51 50 50 50 49
43 43 44 44 44 45 46 46 46 46 46 47 47 48 48 48 48 48 49 48 48 48 48 48 48 48 48 48 47 48 48 48 49 49 49 49 49 49 49 48 48 47 46
42 43 43 44 44 44 45 45 45 46 46 47 47 48 48 48 47 47 47 47 47 47 47 46 46 46 46 47 47 47 47 47 47 47 48 48 48 47 46 46 46 46 45
42 43 43 43 43 44 44 44 45 45 46 46 47 47 47 47 47 47 47 47 46 46 45 46 45 45 46 46 47 47 46 46 46 46 46 46 45 45 44 44 44 44 43
41 42 42 42 42 43 43 43 44 44 45 45 46 46 46 46 47 47 46 45 45 45 44 44 44 44 45 46 46 46 45 45 45 44 44 44 44 43 43 43 43 42 41
40 40 40 41 41 41 42 43 43 43 43 44 44 44 45 45 45 45 45 44 44 44 43 44 43 44 44 44 44 43 43 43 43 43 43 43 43 43 43 42 42 41 40
38 39 39 40 40 40 40 41 41 42 42 42 42 43 43 43 43 43 43 43 43 43 42 42 43 42 42 42 41 41 42 41 41 42 42 42 42 42 42 42 41 40 39
37 37 37 38 39 39 39 40 40 41 41 40 40 40 40 41 41 41 41 41 41 41 42 42 42 42 41 41 41 40 40 40 40 40 40 40 40 40 40 39 39 39 39
35 35 36 37 37 37 37 37 37 37 37 38 38 39 39 39 39 39 39 39 39 40 41 41 42 41 40 40 39 39 38 38 38 38 38 37 37 38 38 38 38 38 38
34 34 34 34 34 35 35 35 35 35 36 36 36 36 36 37 37 37 37 37 38 38 39 39 39 39 39 39 38 37 37 36 35 35 35 35 35 35 35 35 35 36 36
31 31 31 32 33 33 33 33 34 34 34 34 35 35 35 34 34 34 35 35 35 36 36 36 36 37 37 37 36 35 35 34 33 32 32 33 33 33 33 33 34 34 34
Wind_Direction
252 253 254 254 254 256 257 257 257 258 259 260 261 262 264 264 264 264 264 265 265 266 267 269 269 270 270 271 271 271 271 271 271 272 273 274 275 275 276 276 277 277 278
253 253 254 255 255 257 257 258 258 258 259 260 261 262 263 264 264 264 264 264 266 267 268 269 269 270 270 270 271 272 272 272 272 274 274 274 275 275 276 277 277 277 278
254 254 254 255 255 256 257 258 259 260 261 261 261 262 263 264 266 265 265 265 266 267 268 269 269 270 270 270 271 272 273 273 274 274 275 275 275 276 276 277 277 277 278
255 256 255 255 256 257 258 258 259 260 261 261 262 262 263 264 266 267 266 265 266 267 268 268 269 270 270 271 271 272 273 274 274 274 275 275 276 276 276 277 277 277 277
256 256 256 257 256 257 258 258 259 260 261 261 261 262 263 265 266 267 267 266 266 267 269 269 269 270 270 271 272 272 273 274 274 274 275 276 276 276 276 276 276 276 276
258 258 258 259 258 257 258 259 260 260 261 261 262 263 265 266 266 266 267 268 267 268 269 269 270 271 271 271 272 273 273 273 274 275 275 276 276 276 277 277 276 276 276
259 258 258 259 258 257 258 260 260 261 262 262 263 264 265 266 267 267 268 269 269 269 269 269 270 270 271 272 273 273 273 273 274 275 276 276 276 276 276 277 277 276 276
260 259 257 258 258 258 259 261 261 261 262 263 264 265 266 266 267 268 268 269 270 270 270 270 271 271 271 272 272 272 273 273 273 274 275 276 276 276 276 276 276 277 277
261 260 260 258 258 259 260 261 262 262 262 263 264 265 266 266 267 268 269 269 270 270 270 270 271 272 272 272 272 273 273 273 273 274 275 275 276 276 276 275 275 276 276
262 261 260 261 261 261 261 262 263 264 264 265 265 265 266 267 267 268 269 269 270 270 270 270 271 272 272 273 273 273 273 273 274 275 275 275 276 276 276 275 274 275 275
263 263 262 262 262 262 263 263 263 265 266 266 266 266 266 267 267 268 268 269 269 270 270 271 272 272 273 274 273 273 273 273 274 274 275 275 276 276 275 275 275 275 274
264 265 265 263 263 264 264 264 265 265 265 266 266 266 266 266 267 268 268 268 269 270 271 271 272 273 274 274 273 272 272 272 273 274 275 275 275 276 276 275 275 275 274
265 265 265 264 264 264 265 265 265 266 266 266 266 266 266 267 268 269 269 269 270 270 271 271 272 273 273 273 273 273 272 273 273 274 275 275 275 275 275 275 275 275 275
264 265 266 266 266 266 266 265 265 265 266 267 268 267 267 268 268 269 269 270 270 270 271 271 272 273 274 273 274 274 273 274 274 275 275 274 274 275 275 275 275 276 275
265 264 266 267 267 266 265 265 265 266 267 268 268 268 268 267 268 269 270 270 271 271 271 272 273 274 275 274 274 275 275 275 275 275 275 274 275 275 275 275 275 275 274
266 266 267 267 267 266 266 266 266 267 268 268 268 268 267 268 269 269 270 270 271 271 271 272 273 274 275 275 275 275 276 276 275 275 275 276 276 275 276 276 275 273 272
266 266 267 267 267 267 266 267 268 269 269 269 268 268 268 268 268 269 269 269 270 271 271 271 272 273 274 274 275 275 275 276 276 276 276 276 276 276 276 275 274 273 272
266 267 268 267 267 267 267 267 268 269 269 269 268 268 268 268 268 268 268 269 270 271 271 272 272 272 273 273 274 275 275 276 276 276 275 275 275 276 276 275 274 273 274
267 267 268 267 266 266 266 267 267 268 268 269 269 269 268 268 268 268 268 268 269 270 272 272 272 272 273 274 275 275 276 277 277 276 275 275 275 275 275 275 274 273 274
269 268 267 267 266 266 266 267 268 269 269 270 269 269 268 268 268 268 268 268 269 269 271 271 272 272 273 274 276 276 276 277 278 277 276 275 274 274 275 274 273 272 274
269 269 268 268 268 267 267 268 269 270 271 271 270 269 268 268 269 269 268 267 268 269 270 271 271 272 273 275 276 277 277 277 278 278 277 275 274 274 275 274 273 271 273
269 269 268 268 267 268 268 269 270 270 271 271 270 269 269 269 269 269 268 268 268 269 270 271 272 272 273 274 275 277 278 278 278 278 277 276 275 275 275 274 272 270 271
269 270 269 268 268 268 268 269 270 271 271 271 271 270 269 269 269 269 268 269 269 269 270 271 272 273 273 273 275 276 277 278 279 278 277 276 275 275 274 273 271 271 271
270 270 270 270 269 269 269 270 270 271 271 271 271 270 270 270 270 269 268 269 269 270 271 272 273 272 272 273 275 276 277 279 279 278 277 275 274 275 275 274 273 270 271
269 270 270 269 269 270 270 270 271 272 272 272 272 271 271 271 270 270 269 269 269 269 270 272 273 272 272 274 275 277 278 278 278 278 277 276 276 276 276 276 274 272 272
271 271 271 270 270 271 271 271 271 272 272 273 272 271 270 270 270 269 269 269 269 270 270 271 272 273 274 275 276 277 277 277 277 278 277 276 276 276 276 276 275 273 272
Height
5783 5785 5786 5787 5789 5790 5791 5792 5793 5794 5794 5795 5796 5796 5797 5797 5797 5798 5798 5798 5799 5799 5799 5799 5799 5799 5799 5798 5798 5798 5797 5797 5797 5796 5796 5796 5795 5795 5794 5794 5793 5792 5791
5775 5776 5778 5779 5781 5782 5783 5784 5785 5786 5787 5787 5788 5789 5789 5789 5789 5790 5790 5790 5791 5791 5791 5791 5791 5791 5791 5790 5790 5789 5789 5788 5788 5788 5787 5787 5786 5786 5785 5785 5784 5783 5782
5766 5768 5769 5771 5772 5773 5775 5776 5777 5777 5778 5779 5780 5780 5780 5781 5781 5781 5781 5782 5782 5782 5782 5783 5783 5782 5782 5781 5781 5781 5780 5779 5779 5779 5778 5777 5777 5776 5776 5775 5774 5773 5772
5757 5758 5760 5761 5763 5764 5765 5767 5768 5768 5769 5770 5770 5771 5771 5772 5772 5772 5772 5772 5773 5773 5773 5773 5773 5773 5773 5772 5772 5771 5771 5770 5769 5769 5768 5768 5767 5766 5766 5765 5764 5763 5762
5747 5749 5750 5752 5753 5754 5756 5757 5758 5759 5760 5760 5761 5761 5762 5762 5762 5762 5763 5763 5763 5763 5763 5763 5763 5763 5762 5762 5761 5761 5760 5760 5759 5758 5758 5757 5757 5756 5755 5754 5753 5752 5751
5737 5738 5740 5741 5743 5744 5746 5747 5748 5749 5750 5750 5751 5751 5752 5752 5752 5752 5752 5752 5753 5753 5753 5753 5752 5752 5752 5751 5751 5750 5749 5749 5748 5747 5747 5746 5745 5745 5744 5743 5742 5741 5740
5726 5728 5729 5731 5733 5734 5735 5736 5737 5738 5739 5740 5740 5741 5741 5741 5741 5741 5741 5741 5742 5742 5742 5741 5741 5741 5740 5740 5739 5738 5738 5737 5736 5736 5735 5734 5734 5733 5732 5731 5730 5729 5728
5716 5717 5719 5721 5722 5723 5724 5726 5726 5727 5728 5729 5729 5729 5730 5731 5730 5730 5730 5730 5730 5730 5730 5730 5729 5729 5728 5727 5727 5727 5726 5725 5724 5724 5723 5722 5721 5720 5719 5718 5717 5716 5715
5705 5707 5708 5710 5711 5712 5714 5715 5715 5716 5717 5717 5717 5718 5718 5719 5719 5719 5718 5718 5717 5718 5718 5717 5717 5716 5716 5715 5715 5715 5714 5713 5712 5712 5711 5710 5709 5708 5706 5705 5704 5703 5702
5695 5696 5697 5699 5700 5701 5702 5703 5704 5704 5705 5706 5706 5706 5706 5706 5706 5707 5707 5705 5705 5705 5705 5705 5704 5704 5703 5703 5703 5702 5702 5701 5700 5699 5698 5697 5696 5694 5693 5692 5691 5689 5688
5685 5685 5686 5688 5688 5690 5691 5691 5692 5693 5693 5693 5693 5694 5694 5694 5693 5694 5694 5694 5693 5692 5692 5691 5691 5691 5690 5690 5690 5689 5689 5688 5687 5686 5685 5684 5682 5681 5680 5678 5677 5676 5674
5674 5675 5675 5676 5677 5678 5679 5679 5680 5681 5681 5681 5681 5681 5681 5681 5681 5681 5681 5681 5681 5680 5679 5678 5678 5677 5677 5677 5677 5676 5675 5675 5674 5673 5672 5670 5669 5667 5665 5664 5663 5662 5661
5663 5663 5664 5665 5665 5666 5666 5667 5667 5668 5668 5668 5668 5668 5668 5668 5668 5668 5668 5668 5668 5667 5666 5665 5665 5664 5664 5663 5663 5663 5661 5660 5660 5659 5658 5656 5655 5653 5652 5651 5649 5648 5647
5651 5652 5652 5653 5653 5654 5654 5654 5654 5655 5655 5655 5655 5655 5655 5655 5655 5655 5655 5655 5655 5655 5654 5653 5652 5651 5650 5650 5649 5649 5647 5647 5646 5645 5644 5642 5641 5640 5638 5637 5636 5635 5633
5640 5640 5640 5641 5641 5641 5641 5641 5642 5642 5642 5642 5643 5643 5643 5643 5643 5643 5642 5642 5642 5642 5642 5641 5640 5639 5638 5637 5636 5635 5634 5634 5632 5631 5630 5628 5627 5626 5625 5624 5622 5621 5620
5628 5629 5629 5629 5629 5629 5629 5629 5629 5629 5630 5630 5630 5630 5630 5630 5630 5630 5630 5629 5629 5628 5629 5629 5628 5627 5626 5624 5623 5622 5621 5620 5619 5618 5617 5615 5614 5613 5611 5610 5609 5608 5607
5616 5617 5616 5616 5616 5616 5616 5616 5616 5617 5617 5617 5616 5616 5617 5617 5617 5617 5617 5616 5616 5616 5616 5616 5615 5614 5613 5612 5611 5610 5609 5607 5606 5605 5603 5602 5601 5600 5598 5597 5596 5595 5594
5604 5604 5604 5604 5604 5604 5604 5604 5604 5604 5604 5604 5604 5604 5604 5604 5604 5604 5604 5604 5604 5603 5603 5603 5603 5602 5601 5600 5599 5598 5596 5595 5593 5592 5590 5589 5588 5587 5586 5585 5583 5582 5581
5592 5592 5592 5592 5592 5592 5592 5592 5592 5592 5592 5592 5591 5591 5591 5591 5591 5591 5591 5591 5591 5591 5591 5591 5591 5590 5589 5588 5587 5586 5584 5582 5581 5579 5578 5576 5575 5574 5573 5572 5571 5570 5570
5581 5581 5581 5581 5581 5581 5581 5581 5580 5580 5580 5580 5579 5579 5578 5578 5578 5578 5578 5578 5578 5579 5578 5578 5578 5578 5577 5576 5575 5574 5572 5570 5569 5567 5565 5564 5563 5562 5561 5560 5560 5559 5558
5569 5569 5569 5569 5569 5569 5569 5569 5569 5568 5568 5568 5567 5566 5566 5566 5565 5565 5566 5566 5566 5566 5566 5566 5566 5566 5565 5564 5563 5561 5560 5559 5557 5555 5554 5553 5552 5551 5549 5548 5547 5547 5546
5558 5558 5558 5558 5558 5558 5558 5558 5557 5557 5556 5556 5555 5555 5554 5554 5554 5553 5554 5554 5554 5554 5555 5555 5554 5554 5553 5552 5551 5550 5549 5547 5546 5544 5542 5541 5539 5539 5537 5536 5536 5536 5535
5548 5548 5548 5547 5547 5547 5547 5546 5546 5545 5545 5544 5544 5543 5543 5543 5542 5542 5542 5542 5542 5542 5543 5543 5543 5542 5542 5541 5540 5539 5537 5536 5534 5532 5531 5529 5528 5527 5526 5525 5525 5525 5524
5538 5538 5537 5537 5537 5537 5537 5536 5535 5534 5534 5533 5533 5532 5532 5532 5532 5531 5531 5531 5532 5532 5532 5532 5532 5531 5530 5529 5528 5528 5526 5525 5523 5521 5519 5519 5517 5517 5516 5515 5514 5514 5514
5528 5528 5528 5527 5527 5527 5526 5526 5525 5524 5524 5523 5523 5522 5522 5522 5521 5521 5521 5521 5521 5521 5520 5520 5520 5519 5519 5518 5517 5517 5516 5514 5513 5511 5509 5509 5508 5507 5506 5505 5504 5504 5503
5519 5519 5518 5518 5518 5517 5517 5516 5515 5515 5514 5514 5513 5512 5512 5512 5512 5511 5511 5511 5511 5511 5510 5510 5509 5509 5508 5508 5507 5506 5505 5504 5503 5502 5501 5499 5498 5497 5497 5496 5495 5494 5494